Location: Lombard
(41.8800°N, 88.0080°W)
Time: 12:04:34
(UTC-05:00)

A-11 Canister half - Pass Details

Date: 01 February 2023
Orbit: 1512 x 1687 km, 47.2° (Epoch: 20 March)

Event Time Altitude Azimuth Distance (km) Brightness Sun altitude
Rises 15:09:32 0° 285° (WNW) 4,756 12.0 17.5°
Reaches altitude 10° 15:12:42 10° 288° (WNW) 3,749 11.5 17.0°
Maximum altitude 15:22:07 68° 12° (NNE) 1,624 9.2 15.7°
Drops below altitude 10° 15:31:19 10° 95° (E) 3,669 10.6 14.4°
Sets 15:34:22 0° 98° (E) 4,649 11.1 14.0°
